Location: Newark
(34.4697°S, 57.8467°W)
Time: 08:07:53
(UTC+00:00)

ISS - Visible Passes

Search period start: 10 August 2020 00:00
Search period end: 20 August 2020 00:00
Orbit: 418 x 420 km, 51.6° (Epoch: 10 August)

Date Brightness Start Highest point End Pass type
(mag) Time Alt. Az. Time Alt. Az. Time Alt. Az.
10 Aug -2.7 09:12:05 25° SSW 09:13:37 41° SE 09:16:52 10° ENE visible
11 Aug -1.4 08:26:46 23° ESE 08:26:46 23° ESE 08:28:49 10° E visible
11 Aug -2.6 09:59:45 10° WSW 10:02:42 28° NW 10:05:39 10° N visible
12 Aug -3.6 09:14:33 45° W 09:15:12 54° NW 09:18:31 10° NNE visible
13 Aug -1.6 08:29:26 25° NE 08:29:26 25° NE 08:31:01 10° NE visible
14 Aug -1.6 09:17:26 14° NNW 09:17:26 14° NNW 09:18:35 10° NNW visible
16 Aug -2.3 22:42:22 10° N 22:44:38 25° NNE 22:44:38 25° NNE visible
17 Aug -1.7 21:55:48 10° NNE 21:57:47 15° NE 21:59:40 10° E visible
17 Aug -1.4 23:31:00 10° WNW 23:32:40 24° W 23:32:40 24° W visible
18 Aug -3.7 22:43:11 10° NW 22:46:36 81° SW 22:47:34 44° SE visible
19 Aug -3.4 21:55:39 10° NNW 21:58:57 51° NE 22:02:18 10° ESE visible
19 Aug -1.0 23:33:35 10° WSW 23:35:21 17° SW 23:35:21 17° SW visible
